GFSGBSN_prec_cthk_072.txt.gz
RH
44 42 40 39 37 35 33 32 31 32 30 30 30 30 30 28 27 27 28 28 28 29 32 38 39 42 44 42 43 34 31 42 40 37 35 32 27 24 23 23 24 24 28 28 28 26 26
42 40 39 38 36 34 33 31 30 28 28 27 24 23 25 26 26 26 28 29 29 29 28 27 33 40 48 48 51 42 35 34 43 47 44 38 32 28 25 25 26 26 29 28 29 29 27
44 43 39 35 33 32 30 30 30 29 28 27 25 23 22 22 24 25 25 23 23 26 29 25 25 32 45 53 55 50 38 33 38 47 50 47 43 37 32 32 29 28 30 30 30 30 27
38 40 41 36 32 32 30 28 28 30 29 28 27 24 25 25 24 21 19 19 21 22 25 27 27 32 34 42 50 59 48 37 35 37 40 46 48 42 38 34 34 32 31 32 32 29 29
39 37 36 38 34 31 33 28 27 25 25 23 23 22 23 23 24 22 19 17 20 21 20 24 28 34 32 37 47 56 57 47 42 40 38 44 43 44 42 41 38 35 31 34 35 31 32
37 36 35 33 36 32 28 26 25 25 24 23 23 22 20 20 19 19 20 16 16 20 24 23 34 34 31 33 42 50 64 66 48 47 46 53 48 50 47 43 38 38 37 37 35 32 30
48 46 40 42 34 31 30 28 27 27 25 24 28 23 20 20 16 15 12 17 24 28 24 24 25 24 28 32 34 48 57 69 64 49 50 56 53 50 44 45 46 42 37 36 34 33 33
42 44 40 41 41 38 33 34 32 26 28 29 28 26 22 18 14 14 16 23 26 30 29 19 18 22 21 30 35 44 52 61 75 56 52 61 54 50 48 50 50 46 40 37 38 38 35
35 35 39 38 39 38 36 39 37 30 35 32 25 21 19 20 16 19 25 26 29 30 31 17 22 25 24 30 31 36 45 60 57 64 59 53 53 53 49 50 49 46 43 42 41 40 35
42 41 39 39 38 38 37 36 34 33 31 29 23 20 24 22 22 28 31 29 30 33 33 16 18 21 31 33 33 35 31 48 67 52 60 56 51 53 51 48 49 46 44 44 45 45 38
42 41 41 39 38 38 36 36 32 30 29 25 22 22 26 27 29 30 31 30 31 38 22 13 16 23 38 33 29 39 37 43 54 62 56 60 52 49 48 49 47 44 44 46 48 46 42
43 43 40 38 39 40 34 31 30 29 29 26 26 28 28 31 30 31 31 30 35 43 21 14 20 24 32 34 28 29 38 32 40 57 62 62 58 57 47 48 48 50 49 48 49 46 47
43 45 46 37 36 33 40 39 30 30 26 26 26 28 30 31 35 34 34 37 41 30 19 21 23 22 22 36 32 33 33 37 40 52 64 57 61 58 56 50 49 49 49 53 56 56 49
54 52 51 43 37 42 43 40 29 29 29 25 24 29 31 31 36 39 41 44 42 25 26 25 24 24 26 32 37 43 45 38 40 43 52 65 68 62 53 54 54 50 50 50 56 56 51
41 40 39 42 36 41 45 38 38 30 29 24 27 31 34 32 32 40 47 48 28 31 32 27 23 21 26 31 40 46 51 53 41 46 39 48 57 58 51 49 55 56 53 52 54 57 58
42 43 38 46 45 39 40 45 44 35 27 25 32 38 34 33 40 50 53 40 36 40 37 32 30 29 34 34 39 53 59 58 63 53 49 50 48 54 56 59 52 55 58 61 61 65 62
42 35 33 36 43 41 46 45 43 32 29 26 35 46 37 31 43 59 54 49 44 38 41 41 34 33 36 42 41 45 67 60 59 63 46 49 54 58 56 59 53 54 57 58 59 58 59
43 39 43 34 38 37 36 41 36 28 32 33 47 49 39 44 60 61 58 50 50 36 43 43 39 42 40 43 46 42 53 59 55 59 65 58 51 59 60 57 57 54 54 55 60 61 60
52 48 42 37 32 37 53 50 35 31 31 45 49 46 40 61 64 65 59 56 52 45 41 44 43 42 42 43 48 47 46 53 55 61 70 65 63 51 44 52 52 58 62 57 59 60 63
55 50 47 39 37 34 48 49 43 33 39 50 53 51 47 60 62 69 62 66 74 54 50 51 50 48 47 45 48 48 49 43 47 49 66 69 65 70 65 60 56 59 57 59 59 61 59
50 43 38 34 36 42 43 48 44 34 55 59 58 51 52 62 53 66 71 69 70 61 54 52 54 53 54 53 50 51 49 49 45 47 50 62 67 65 63 59 58 59 55 53 56 58 61
65 62 53 43 34 43 44 48 48 43 57 62 55 54 57 58 65 80 75 89 69 65 63 57 62 64 64 60 57 54 55 55 51 48 48 53 58 63 59 59 52 50 52 50 48 49 54
78 77 74 68 59 41 46 54 52 50 59 62 60 61 63 58 55 72 68 67 91 85 72 63 73 73 69 68 66 60 61 58 53 52 50 54 55 57 60 69 66 60 51 47 48 49 56
87 85 82 79 75 68 57 62 65 63 64 67 63 65 67 53 59 59 69 77 89 84 85 71 78 85 82 77 73 68 65 61 59 54 51 51 56 64 61 58 55 38 38 46 54 53 54
98 95 94 91 97 98 96 87 90 92 86 82 78 68 66 60 55 57 65 84 86 87 87 81 85 88 94 95 87 77 71 68 60 57 58 53 54 62 56 49 36 30 32 34 33 37 44
98 97 94 92 91 98 98 98 98 98 99 98 90 80 69 69 54 49 70 77 96 93 81 85 95 94 96 98 92 82 74 68 68 69 62 63 59 59 60 50 51 40 39 37 35 42 42
89 88 90 87 91 91 96 98 98 98 98 98 91 84 77 66 48 79 61 81 83 90 90 92 98 98 98 98 92 85 78 71 72 75 89 78 72 67 61 64 55 48 42 44 49 61 45
88 86 85 83 79 79 88 95 98 98 99 99 95 86 78 66 46 67 74 59 71 82 90 95 98 97 98 96 88 80 79 74 73 75 83 83 74 73 68 63 69 49 50 53 62 48 39
89 91 86 83 84 83 77 84 97 98 98 99 98 91 86 78 58 57 64 74 86 83 88 98 92 93 93 91 81 82 80 79 75 75 73 83 65 67 58 61 60 62 60 58 55 47 43

GFSGBSN_prec_cthk_075.txt.gz
RH
49 47 45 44 43 41 42 40 38 37 35 34 32 30 26 25 25 24 24 24 23 23 24 25 25 25 28 39 44 40 37 35 38 39 37 34 33 27 24 21 21 20 22 23 25 27 27
48 47 45 43 43 43 41 41 39 38 36 34 32 27 22 20 20 21 21 21 21 20 19 21 23 25 27 33 41 44 43 41 41 45 42 39 36 35 30 27 26 24 25 25 26 28 28
41 42 44 46 42 40 40 39 38 36 33 32 31 27 22 21 19 17 16 16 16 16 16 17 18 21 28 30 29 39 47 41 43 47 49 46 42 39 37 35 31 27 26 26 26 29 28
46 46 45 44 47 42 38 37 36 34 31 28 28 26 24 22 20 17 17 15 13 14 15 17 16 19 25 22 26 31 42 49 43 43 45 51 50 47 45 41 38 34 31 29 27 30 31
50 48 47 44 41 40 38 36 34 31 29 27 26 24 23 22 19 17 13 13 13 13 12 14 19 23 20 22 25 30 37 45 51 47 44 47 50 50 51 48 43 39 33 32 31 31 33
48 53 55 48 53 43 38 34 33 30 28 27 25 22 21 18 15 13 12 11 15 17 21 21 26 27 21 17 22 29 36 44 52 53 51 42 43 47 48 49 43 41 38 37 36 37 32
39 43 48 52 53 53 50 42 37 34 32 28 27 23 21 19 17 14 13 19 24 29 30 22 22 21 16 18 22 25 38 43 53 60 58 46 47 43 44 45 45 47 44 42 40 38 33
42 42 37 44 46 50 56 47 40 41 35 33 28 27 25 19 19 18 24 25 23 24 24 12 17 17 15 17 22 21 32 44 48 60 76 56 52 51 52 53 53 50 48 45 40 38 34
39 41 42 42 42 45 44 53 51 47 38 37 37 29 24 22 22 26 29 26 26 29 27 15 16 14 18 18 19 19 24 38 48 61 69 73 54 61 57 58 55 52 51 49 46 43 38
45 44 42 40 41 43 43 46 42 40 37 31 34 32 28 22 27 32 37 28 29 31 33 26 20 21 22 23 26 26 26 33 45 54 64 83 66 60 63 60 57 55 51 50 49 48 44
35 40 42 47 45 43 43 47 43 39 37 37 36 31 30 27 28 33 35 30 31 34 25 19 19 19 23 24 26 30 27 34 48 54 62 71 76 66 56 59 58 53 54 51 49 50 47
34 40 41 44 45 41 42 49 50 42 38 37 36 28 28 30 34 37 31 31 33 44 31 19 20 20 23 26 26 29 35 28 40 49 61 65 73 71 60 56 60 58 54 53 51 52 51
35 37 42 46 52 53 49 41 45 50 42 34 31 30 27 34 39 39 36 39 39 30 21 21 23 20 19 23 28 28 40 36 25 40 51 60 71 65 64 60 53 56 56 59 59 57 54
47 41 49 49 49 55 48 49 51 47 44 37 30 27 30 34 39 40 39 41 37 21 26 27 20 19 21 27 35 34 35 44 37 35 38 52 62 65 62 63 61 58 57 55 61 61 53
53 47 47 47 40 41 48 52 58 49 43 36 30 26 34 36 33 45 49 46 24 30 25 33 20 18 25 25 30 35 39 52 53 38 40 55 62 61 65 65 67 65 57 51 54 63 64
53 58 55 58 57 38 43 48 50 51 48 41 34 40 39 42 44 51 55 39 32 31 40 35 21 28 29 35 32 38 55 64 67 62 42 49 58 54 64 68 64 63 63 60 58 68 69
51 65 58 59 50 46 45 46 49 58 54 47 43 54 50 40 55 65 57 42 30 33 44 38 33 35 33 36 34 43 78 73 59 61 58 49 61 67 60 68 65 61 60 64 61 59 65
48 68 61 62 57 55 45 46 52 55 59 47 47 59 53 52 58 59 56 42 39 43 43 39 38 40 38 42 42 41 43 59 58 56 67 54 67 67 61 58 64 63 57 64 66 67 62
45 63 66 68 58 53 43 49 50 51 47 44 52 49 44 57 62 57 51 47 46 45 46 44 48 40 38 44 43 42 42 51 58 59 64 61 57 66 73 65 62 62 62 60 63 65 74
43 51 58 66 66 57 44 42 55 58 47 38 58 59 45 56 61 58 59 52 49 52 52 48 51 47 45 48 47 47 48 47 48 59 65 63 67 64 59 68 68 61 64 68 63 67 61
64 59 61 61 53 44 36 40 55 62 53 49 56 53 56 56 53 55 69 67 60 61 62 59 58 52 55 50 46 51 44 54 52 46 56 77 89 77 74 75 64 65 64 59 58 61 68
88 71 75 77 69 51 39 35 44 59 58 58 56 57 52 52 66 61 51 58 74 62 61 72 63 59 51 48 50 58 57 57 55 55 49 68 66 70 78 66 65 63 62 61 57 56 55
89 84 82 87 83 77 59 40 44 54 58 60 60 58 65 61 49 59 68 55 51 71 79 78 73 65 65 76 63 61 70 66 59 55 58 53 57 56 66 59 59 60 48 46 48 53 53
93 86 87 88 88 84 80 68 43 49 55 57 58 63 71 62 53 53 64 73 63 69 85 83 83 64 78 80 69 64 60 57 55 52 52 54 54 54 56 60 65 53 55 55 58 58 55
94 94 93 90 88 87 87 83 65 52 72 74 83 84 78 65 51 49 51 62 71 72 72 93 94 79 81 86 79 70 70 69 64 54 55 52 52 61 60 54 46 42 38 32 36 39 50
97 98 98 97 97 97 94 96 98 87 76 79 84 92 93 82 57 54 53 52 66 79 94 76 85 94 89 93 95 83 74 68 67 60 55 56 56 58 56 55 54 40 46 37 39 46 54
97 96 96 96 95 97 95 95 97 95 80 82 90 93 98 86 64 75 53 56 60 78 92 93 89 90 95 97 95 82 74 72 75 74 81 72 73 65 62 59 53 59 53 45 56 64 65
95 92 94 95 95 95 92 93 96 97 95 94 88 95 96 87 78 57 74 77 69 70 88 92 93 96 98 98 91 82 76 76 65 69 79 79 80 73 68 77 62 48 54 56 68 67 67
95 91 89 91 91 89 86 85 90 98 98 99 97 95 97 91 80 63 58 72 85 95 96 95 91 96 92 93 80 81 80 75 71 70 74 82 68 68 59 57 61 62 70 71 63 64 64

GFSGBSN_prec_cthk_078.txt.gz
RH
49 50 52 48 47 47 45 44 42 41 40 39 37 38 35 29 27 26 24 23 24 23 23 22 22 23 24 27 31 29 34 33 31 31 38 37 38 37 33 29 25 24 21 21 22 25 24
49 47 49 55 54 52 48 47 44 43 40 40 38 38 36 32 28 24 22 21 20 19 19 19 17 17 19 27 23 28 30 34 36 39 39 42 41 40 39 34 29 26 25 23 23 24 25
50 49 46 47 48 50 44 43 42 41 41 39 37 37 34 33 30 26 21 18 17 16 16 15 15 17 22 16 20 23 25 29 33 35 43 43 43 44 42 39 34 32 30 27 24 25 26
42 45 49 51 49 49 47 43 43 43 40 39 36 34 33 29 28 24 20 16 15 15 14 13 13 17 19 12 15 19 21 23 33 35 39 50 49 48 45 42 39 37 36 33 26 26 26
32 36 39 45 48 56 51 46 42 39 37 35 35 34 32 28 23 19 16 14 13 15 15 15 15 22 19 16 15 18 19 23 26 35 38 41 49 50 52 48 46 45 42 37 33 30 30
28 28 30 36 38 43 52 55 50 45 35 34 32 32 31 27 23 17 13 12 16 21 25 24 23 31 26 15 16 17 21 24 24 30 36 42 49 49 48 53 50 44 40 41 40 34 38
31 32 37 36 32 33 37 43 54 52 45 38 33 31 30 27 22 17 18 16 30 32 36 27 26 21 20 20 17 18 20 28 23 27 34 43 48 38 48 52 51 50 50 48 46 40 39
26 24 27 38 39 39 38 35 41 49 53 49 41 37 32 27 22 21 28 34 30 31 26 15 11 13 12 13 15 13 16 29 33 32 38 44 41 46 56 49 50 49 49 50 47 48 43
26 26 27 27 33 39 40 40 37 41 44 49 49 35 31 27 23 34 35 37 31 34 30 14 17 19 17 17 17 14 13 17 29 38 42 51 45 57 60 59 53 52 54 52 50 50 47
29 29 28 26 24 25 38 50 45 49 45 44 50 45 38 31 35 40 45 40 36 36 36 29 22 21 19 18 22 18 17 20 23 34 41 50 55 55 62 72 72 65 60 59 56 56 58
25 29 30 30 29 31 37 45 50 51 47 43 41 47 35 33 30 37 47 33 32 38 46 30 22 21 20 19 21 24 19 19 24 35 38 46 51 62 68 77 77 74 67 70 69 58 56
25 28 32 31 34 31 32 37 45 50 50 49 45 41 36 38 39 36 36 33 38 55 48 23 26 25 25 24 23 22 21 16 23 29 46 48 58 63 73 85 78 76 72 75 68 61 58
28 37 42 40 41 45 44 45 44 50 49 51 45 40 34 38 37 47 37 40 54 43 20 24 28 27 22 19 21 25 29 27 24 31 41 43 51 62 73 87 82 75 71 86 81 66 58
32 38 43 41 42 46 47 55 50 42 54 54 47 42 37 27 28 40 38 48 51 24 33 32 29 24 19 23 28 35 33 36 31 29 31 40 49 49 59 74 77 73 68 88 78 71 61
37 39 40 36 41 50 47 45 53 47 62 64 56 40 36 29 27 45 59 48 29 34 24 26 30 23 17 25 26 46 43 40 60 50 42 44 47 51 63 66 72 78 73 68 83 80 92
38 42 44 44 43 59 61 58 49 51 57 64 60 49 45 33 42 49 63 55 33 33 39 35 30 20 23 32 40 34 41 64 66 67 57 58 55 56 60 69 73 79 72 74 81 83 88
40 41 46 51 45 54 69 59 54 57 51 60 65 56 38 36 56 64 59 48 36 37 36 38 32 29 36 33 39 34 54 65 73 56 63 62 52 54 58 67 74 75 76 83 83 79 81
43 49 58 55 50 58 81 67 58 62 60 63 68 62 57 56 66 69 67 52 48 41 41 35 32 37 44 43 49 37 47 59 54 64 70 67 51 54 61 69 69 73 69 71 86 88 74
46 57 63 46 44 69 80 73 65 61 69 69 66 55 59 85 73 72 66 56 50 45 39 42 42 38 39 40 41 45 39 53 42 46 58 51 51 62 64 76 67 70 75 79 71 81 96
40 55 82 61 53 65 73 76 65 63 69 70 67 64 47 80 79 77 71 56 52 43 39 41 41 40 40 41 39 49 54 53 44 38 40 56 64 63 83 94 87 81 73 74 74 76 80
45 63 95 72 63 68 56 64 68 54 63 74 64 60 67 56 60 61 62 64 62 50 46 46 45 44 48 50 51 52 50 50 51 44 43 61 81 75 60 81 81 86 85 81 90 84 82
46 76 96 77 75 82 82 53 41 49 65 67 65 56 55 67 69 66 53 58 54 56 62 62 58 51 48 54 56 57 59 63 67 56 47 47 71 74 71 67 78 72 69 67 66 73 68
58 92 94 75 81 95 95 82 49 39 61 66 63 57 69 63 48 62 74 67 50 52 65 87 75 75 58 55 56 57 66 73 66 70 59 58 52 63 68 67 71 66 56 54 54 57 53
90 96 92 80 83 96 99 87 78 42 49 61 62 61 63 59 62 60 54 66 70 53 62 66 73 75 71 77 60 77 68 61 72 71 60 54 52 56 70 70 81 57 55 54 50 50 53
95 95 92 90 84 85 89 88 87 75 48 52 61 66 70 68 62 59 56 57 74 80 75 71 62 74 81 93 71 67 72 67 48 52 51 47 46 57 63 59 57 56 52 44 50 54 56
92 94 94 92 92 93 89 88 88 88 78 52 63 85 89 89 73 60 55 56 61 69 74 71 71 72 94 85 89 73 72 67 65 57 44 49 48 56 61 60 54 37 36 48 41 41 59
90 96 97 96 96 95 95 94 93 92 93 89 75 86 96 93 81 75 64 61 59 67 75 83 85 87 91 92 82 78 73 74 78 75 77 66 65 65 63 71 53 39 54 50 55 65 63
93 96 94 95 97 99 97 96 97 96 98 99 88 88 89 93 86 70 72 78 76 76 85 91 85 98 87 90 82 74 77 75 79 76 85 77 83 78 72 71 64 58 58 80 77 74 76
90 95 95 89 91 93 97 96 93 93 95 99 98 93 93 97 82 73 65 66 73 80 87 98 92 92 79 75 77 81 84 84 71 74 80 93 75 76 67 58 61 61 67 85 75 86 84

GFSGBSN_prec_cthk_081.txt.gz
RH
50 49 48 48 47 47 47 46 45 45 43 42 43 42 41 40 35 31 29 27 25 24 25 25 24 22 20 21 22 21 22 25 28 29 28 35 31 34 33 32 30 28 23 22 21 19 20
45 47 49 49 49 49 48 45 44 44 45 45 45 44 42 40 35 33 31 27 24 23 23 22 21 20 21 26 18 22 24 26 28 30 33 34 35 37 39 36 34 32 28 24 23 22 19
32 32 34 35 39 42 48 51 47 45 42 41 40 40 39 39 36 32 30 27 24 22 21 21 20 21 23 19 15 16 21 23 25 28 34 38 40 40 40 38 38 36 32 27 26 23 23
24 24 24 24 24 27 31 39 47 47 43 39 37 37 37 38 36 31 25 24 23 22 21 22 23 22 22 14 14 12 14 19 22 26 32 38 41 41 41 40 40 40 37 35 27 26 24
21 21 20 22 24 26 26 30 34 37 47 45 39 35 34 34 32 28 23 20 20 22 23 26 24 22 21 16 15 15 16 15 19 23 29 35 40 41 44 47 47 46 45 39 34 33 31
17 18 17 17 18 20 23 25 32 33 36 40 41 41 37 32 29 25 21 23 21 23 30 31 28 36 19 16 18 17 19 23 23 21 25 30 33 38 45 53 52 50 48 44 38 38 39
15 18 19 19 18 20 20 24 28 31 36 37 38 40 39 34 29 23 25 26 34 35 40 31 31 22 23 18 18 19 17 21 21 18 21 23 27 34 41 52 54 54 55 50 44 42 49
16 17 24 26 26 23 21 21 22 30 36 38 38 37 43 34 29 28 39 39 45 43 36 21 17 24 20 21 19 15 15 19 25 22 20 23 22 28 37 43 46 49 52 48 44 45 51
16 17 20 22 24 24 24 22 25 26 31 39 40 37 40 42 33 42 43 46 47 46 43 17 15 15 13 14 15 12 13 18 23 30 27 27 27 30 37 41 47 49 55 58 55 48 53
18 17 17 18 20 25 27 26 30 29 29 34 44 43 42 40 37 41 51 48 45 45 49 25 24 19 19 18 21 19 18 16 18 24 34 34 33 40 43 46 48 47 58 64 79 84 78
21 20 19 18 21 23 26 28 30 33 30 31 50 48 42 42 47 42 54 51 45 47 62 37 28 24 22 22 28 22 21 19 19 18 25 33 37 43 47 43 51 52 60 74 84 92 84
22 21 19 23 28 28 29 34 38 35 38 38 39 52 42 38 41 48 51 45 49 63 53 30 25 22 21 21 23 29 24 17 16 18 20 26 31 39 45 51 59 66 78 77 86 96 98
23 22 23 26 31 33 32 33 38 43 48 44 42 53 46 41 35 60 47 46 59 63 32 32 32 29 28 26 26 29 27 23 21 24 23 24 34 41 50 64 70 86 96 98 99 98 89
25 27 25 28 30 32 32 35 38 42 50 51 44 51 50 41 35 53 62 70 69 39 42 44 39 32 24 26 31 32 34 34 29 28 28 33 36 35 52 62 68 84 96 95 90 92 79
30 33 28 30 35 36 38 40 48 45 48 52 56 58 55 33 29 55 61 67 47 26 47 45 41 32 26 20 25 41 45 41 43 37 40 42 37 35 46 56 68 77 87 84 93 97 95
28 32 31 32 36 38 43 48 53 54 61 61 67 63 42 34 32 59 64 58 38 38 38 42 41 33 32 41 40 42 42 54 55 50 42 50 56 43 48 57 68 72 77 91 96 95 96
34 35 37 37 39 44 59 50 45 72 65 71 68 62 46 41 45 60 69 57 38 52 43 42 42 35 32 50 48 46 55 70 59 55 58 68 62 53 50 61 70 79 82 96 97 91 98
34 38 36 39 46 56 62 54 66 80 74 75 72 70 54 61 60 59 60 65 42 46 52 46 40 35 36 42 48 48 52 54 51 49 59 66 67 58 43 47 63 72 81 89 98 96 84
42 37 36 40 54 75 53 55 73 83 85 83 79 58 58 95 73 71 70 59 54 44 50 46 51 44 39 42 46 45 46 48 47 44 48 65 70 66 46 61 75 82 82 86 95 91 97
34 31 35 50 68 85 57 60 71 81 83 79 85 67 57 90 98 85 67 60 59 50 50 58 52 48 39 41 43 43 47 53 49 41 37 36 52 63 69 90 94 98 88 88 94 98 83
31 31 43 58 83 84 65 73 66 72 77 75 74 65 63 82 88 90 86 90 89 75 57 52 43 39 41 48 44 44 42 49 54 52 45 41 44 44 69 71 66 94 85 96 96 96 97
32 34 42 63 93 79 74 88 88 58 68 70 69 67 67 73 75 80 80 73 69 65 64 66 57 47 49 49 48 48 50 52 54 60 61 52 49 45 61 73 64 68 77 82 89 96 93
31 34 51 84 94 71 78 95 98 83 55 62 65 62 63 66 73 76 71 73 58 50 51 59 65 69 60 59 56 52 51 52 54 64 68 68 62 55 59 69 70 73 67 68 74 78 83
26 33 78 95 93 75 79 95 99 90 68 46 54 59 64 52 62 64 65 69 77 79 67 61 71 84 68 64 62 58 49 52 53 63 68 76 72 65 61 67 72 63 62 61 65 62 63
26 56 88 94 92 85 77 89 93 88 78 56 43 62 64 57 53 56 57 60 64 70 75 68 71 76 69 66 81 94 75 66 62 64 68 61 62 70 65 62 56 53 58 60 57 56 56
34 73 86 92 93 92 88 84 87 86 88 77 54 55 72 69 57 54 61 63 65 68 66 57 65 71 62 69 85 96 81 67 54 53 44 48 53 63 58 67 70 48 60 59 57 64 57
49 78 85 93 97 96 93 92 91 86 87 84 70 62 68 81 77 80 79 74 70 74 73 70 77 74 73 76 97 88 74 57 63 74 80 66 57 56 58 67 68 45 48 52 58 73 60
65 79 86 95 95 96 96 96 96 93 89 88 82 86 84 88 85 81 74 78 83 81 88 89 89 80 89 84 84 77 66 60 68 78 98 86 89 81 76 76 70 56 54 58 70 65 58
74 82 87 91 89 93 95 97 98 97 96 98 98 97 94 91 82 78 69 61 71 73 83 93 98 95 97 94 80 72 71 78 80 97 92 98 79 82 75 69 70 66 70 71 74 87 85

GFSGBSN_prec_cthk_084.txt.gz
RH
39 38 38 38 39 40 42 43 42 42 40 39 39 40 40 38 34 32 32 31 31 28 27 26 26 27 26 25 25 22 27 26 27 28 28 28 33 31 32 34 36 30 25 22 21 19 19
33 32 32 32 32 32 31 30 32 36 40 41 40 40 39 43 40 36 33 32 33 30 27 25 25 27 29 33 20 21 20 25 26 28 30 29 31 32 32 35 36 34 32 28 26 24 22
30 25 22 22 23 24 24 25 26 26 25 31 37 40 40 37 39 36 42 39 32 34 31 28 27 29 33 24 21 21 24 25 26 27 28 31 34 32 32 35 37 37 35 32 29 26 25
23 21 18 17 17 17 17 18 20 22 25 29 27 30 34 33 33 34 35 33 29 28 29 32 34 34 31 22 20 19 17 17 23 24 25 33 34 34 38 37 36 38 36 34 31 31 30
17 17 16 14 13 13 14 14 15 15 17 25 28 30 29 29 30 29 28 25 27 27 26 28 32 35 30 23 21 21 20 16 18 20 22 29 33 33 37 41 44 42 40 35 35 38 39
14 12 13 15 14 14 15 16 16 16 18 21 27 25 28 29 29 26 23 30 30 31 31 34 41 43 24 25 25 22 22 22 21 22 22 25 32 34 40 45 48 46 43 41 41 46 47
15 15 14 14 16 16 17 18 18 15 19 25 25 26 29 27 27 29 28 31 37 42 44 39 40 32 24 27 26 22 20 19 21 21 22 24 29 31 36 43 46 47 46 45 44 47 47
15 15 15 15 16 17 18 18 17 18 21 25 25 25 28 29 25 29 49 47 51 59 46 33 27 31 23 28 31 21 19 19 24 23 19 23 24 25 30 35 41 44 46 42 38 46 53
16 16 15 14 15 16 17 19 21 21 25 26 25 27 26 30 27 30 53 56 53 52 50 28 23 23 15 24 26 17 20 18 21 24 23 22 22 21 24 28 31 34 38 39 42 50 56
16 17 17 17 17 19 20 20 21 23 23 26 26 28 31 28 31 30 52 60 54 52 53 32 31 25 18 16 17 9 15 13 17 20 26 32 25 29 31 36 37 38 36 40 44 58 64
17 18 19 18 18 22 25 24 23 26 28 29 32 32 30 35 37 32 53 62 55 53 62 39 34 28 25 21 23 21 20 19 17 20 26 36 41 40 43 43 42 43 43 48 51 59 65
19 18 18 18 22 27 29 27 27 28 29 33 39 40 36 36 38 36 48 60 58 58 58 42 39 34 31 27 30 28 27 21 20 21 21 26 34 38 39 42 42 48 54 58 59 68 74
18 19 19 22 25 27 27 26 26 26 32 34 38 42 40 39 33 45 47 58 72 69 41 54 37 34 29 29 31 29 28 25 22 25 24 21 24 30 36 46 54 58 67 78 87 85 63
19 20 23 26 25 27 29 31 31 32 39 40 40 43 41 33 39 49 55 63 70 42 54 57 54 42 37 31 34 35 35 34 27 27 30 31 28 31 36 43 60 69 74 86 94 89 76
19 22 21 26 28 26 26 32 35 38 48 50 53 48 39 46 47 50 64 76 58 41 58 67 59 49 35 35 32 38 40 45 44 36 36 39 38 29 35 43 50 71 84 85 98 97 98
20 23 29 28 31 26 29 40 55 59 53 50 52 51 43 50 51 52 66 64 65 60 62 70 69 56 49 44 36 44 58 63 58 49 43 47 50 45 42 45 52 64 79 99 97 96 97
22 27 26 32 32 29 41 57 67 61 51 63 72 67 61 61 48 59 69 63 60 68 70 75 69 56 50 52 47 50 66 68 57 55 52 58 60 60 51 44 56 66 85 95 98 97 95
22 28 36 32 32 32 53 71 65 60 66 81 83 81 89 85 52 62 67 57 47 67 71 62 68 59 54 55 57 58 63 64 63 68 65 59 66 68 57 49 49 60 73 85 99 97 91
28 31 33 31 27 34 67 77 57 59 81 86 84 92 88 91 76 61 50 48 57 56 72 68 58 54 50 46 62 60 58 62 58 55 51 47 67 72 66 55 58 78 82 86 91 92 95
27 33 35 32 28 49 82 78 66 70 85 88 87 91 89 86 88 83 84 76 77 64 60 61 67 49 39 38 48 61 57 54 48 52 49 44 48 60 74 70 74 89 88 92 98 97 86
32 32 33 31 31 52 82 76 74 84 71 78 76 79 83 97 99 98 92 85 83 82 65 59 53 51 55 55 57 55 54 54 53 53 48 47 48 46 46 47 48 67 75 92 95 97 98
29 29 30 28 29 62 86 74 79 89 89 75 65 65 73 86 90 97 93 89 90 79 73 62 60 64 71 69 70 68 56 53 54 53 54 58 56 50 45 37 43 58 67 76 97 93 96
26 34 37 32 37 78 85 77 76 91 95 82 57 54 64 76 80 88 96 89 91 91 81 79 72 75 72 63 63 58 54 49 49 53 54 57 65 64 56 45 47 61 72 72 85 86 93
35 36 29 25 57 90 85 77 76 87 93 86 63 56 58 59 65 71 79 80 79 79 82 74 73 70 66 64 58 53 51 46 43 47 49 56 64 72 79 59 56 46 62 68 79 79 80
36 34 28 32 72 89 88 80 79 85 90 82 70 49 58 56 53 61 66 76 85 76 75 69 61 65 68 70 65 61 59 53 47 41 43 46 56 67 71 68 50 37 60 68 68 77 72
36 31 28 42 75 88 94 88 83 84 85 84 86 56 52 60 51 50 60 61 70 74 69 67 65 66 69 69 72 74 73 70 62 51 46 56 60 66 69 71 69 39 66 67 70 83 74
32 29 29 54 77 89 96 96 91 89 86 85 85 80 59 60 53 55 58 63 62 66 72 73 69 69 71 77 76 75 75 71 66 59 55 72 82 68 70 72 61 34 59 70 85 87 81
30 31 48 63 80 90 95 97 96 95 91 88 82 85 68 64 61 68 67 68 70 72 72 72 74 78 79 81 74 79 80 69 64 61 67 80 92 93 74 69 63 35 56 66 80 85 80
33 46 59 71 86 91 91 92 96 98 98 93 83 79 86 86 77 74 75 73 67 71 75 76 84 91 92 90 82 85 82 75 75 80 81 91 95 94 85 74 71 68 65 70 79 75 79

GFSGBSN_prec_cthk_087.txt.gz
RH
28 29 28 28 28 29 29 29 28 27 28 28 29 32 34 33 31 31 32 32 32 32 30 32 31 30 29 29 30 29 33 33 32 32 33 33 33 34 31 31 36 32 29 27 25 22 19
28 26 26 24 24 25 24 23 22 22 24 25 25 25 24 27 31 32 30 30 36 34 34 33 31 31 37 37 30 27 25 26 30 31 32 34 35 35 34 32 34 32 32 31 29 27 25
25 24 24 22 19 18 17 16 15 14 14 15 17 20 22 22 21 25 27 27 28 35 45 40 42 39 39 31 27 26 28 26 25 29 32 35 38 38 36 35 34 34 35 35 34 33 29
25 23 21 18 15 13 12 14 14 14 14 14 13 13 14 16 19 19 21 19 19 25 31 43 40 43 43 27 27 25 24 25 29 30 31 32 36 36 38 38 38 39 37 39 36 36 33
17 14 13 15 14 14 14 13 13 13 12 11 13 15 17 14 15 16 14 18 21 24 26 33 44 43 39 34 31 29 27 24 20 22 28 31 34 36 35 40 43 41 44 41 40 41 38
12 12 12 13 14 14 14 13 13 12 12 12 13 15 16 16 14 16 14 16 25 31 31 33 40 47 32 31 41 38 37 35 27 19 24 27 32 34 38 43 48 47 44 41 41 41 41
14 13 14 15 15 14 15 13 13 14 13 14 15 16 17 18 14 16 15 24 28 40 41 41 44 43 34 38 38 37 33 29 34 30 25 25 30 33 34 37 41 45 47 48 45 44 46
10 11 11 12 12 12 14 15 15 13 13 14 14 17 16 17 16 18 19 41 48 58 50 34 33 36 28 32 43 38 35 27 30 31 27 26 28 27 31 35 41 47 50 51 47 46 50
14 15 16 16 16 14 16 16 14 14 15 17 18 18 20 20 20 21 25 41 48 53 61 38 25 28 27 25 32 30 36 30 26 30 28 25 23 24 27 29 34 37 38 42 46 52 53
17 16 14 16 15 13 13 15 16 16 18 19 20 23 25 23 24 27 28 40 53 62 65 35 34 29 26 24 28 19 33 32 23 25 29 29 20 23 27 25 27 33 35 39 45 51 53
16 17 15 13 13 13 15 17 18 18 18 18 23 24 28 31 28 29 30 37 59 63 67 34 42 34 31 22 23 16 18 24 22 19 24 27 26 25 27 29 32 38 43 50 52 56 57
17 16 15 12 15 16 17 19 21 20 20 20 26 26 28 31 31 36 34 39 59 71 63 39 51 45 35 31 30 24 23 22 20 19 21 22 29 29 36 42 42 49 51 51 57 62 65
16 15 14 15 16 16 17 21 23 25 22 26 36 33 34 35 33 39 39 42 67 72 40 57 54 50 41 37 36 31 28 26 25 28 27 23 26 33 35 46 50 51 57 73 72 75 62
16 16 15 15 15 18 21 23 25 25 28 40 43 43 42 36 38 46 47 60 67 44 53 64 57 56 50 36 38 38 41 38 25 23 28 25 26 30 34 35 46 60 66 73 79 84 86
18 17 16 15 18 22 23 24 26 28 44 49 47 44 34 40 47 56 53 68 51 57 81 72 72 63 67 54 41 45 42 43 40 34 32 35 30 28 30 34 44 69 75 70 81 80 86
18 17 17 18 20 28 26 28 30 40 58 55 44 41 41 47 54 59 60 64 51 66 81 79 87 71 69 58 50 50 53 58 55 48 41 43 46 44 41 43 53 57 65 85 97 96 92
18 18 17 22 30 27 28 30 35 55 61 51 52 62 65 69 72 70 64 64 47 68 84 88 95 77 64 63 58 61 74 63 60 58 53 52 55 61 52 54 58 65 75 85 91 95 98
18 17 18 29 31 28 27 30 44 68 52 57 69 77 74 94 98 71 65 55 59 67 75 86 92 80 69 70 66 63 81 77 73 71 61 57 65 73 68 62 56 51 67 84 95 94 97
19 26 21 29 31 28 31 36 60 71 59 64 76 78 86 97 98 69 59 57 61 64 73 85 87 89 75 76 73 71 69 67 66 60 63 56 68 62 68 71 71 70 73 88 95 97 93
26 24 25 31 29 26 32 40 71 70 71 70 71 80 80 98 98 87 64 80 75 71 80 84 85 83 81 72 72 73 64 60 64 65 58 56 59 57 61 66 72 72 79 83 90 98 98
29 23 25 26 33 31 30 46 76 71 77 79 73 68 84 93 96 90 96 98 94 86 82 91 86 89 87 78 68 73 73 62 60 56 54 52 54 54 51 52 56 52 52 54 79 89 99
25 23 26 25 26 31 30 57 78 72 76 82 81 69 69 83 86 95 97 98 98 93 80 84 87 77 76 68 60 58 63 63 68 54 51 52 58 56 52 46 42 43 38 43 62 80 89
25 22 26 34 31 32 32 65 81 76 74 82 83 75 62 68 78 88 93 94 97 93 92 84 74 66 69 60 56 52 54 60 66 64 56 54 59 60 58 52 48 48 36 50 60 81 85
20 27 31 37 27 29 44 78 81 76 75 83 82 77 65 60 72 80 83 85 87 90 90 80 76 71 65 63 60 58 60 53 55 49 46 48 52 61 66 53 59 41 37 51 58 74 80
25 30 35 35 27 36 57 80 80 77 79 83 81 74 59 51 59 68 75 81 84 86 85 82 78 80 76 70 63 60 53 45 41 40 42 42 46 55 59 57 46 38 39 52 63 72 77
27 33 34 30 30 36 60 82 86 80 81 82 83 79 71 51 43 49 61 73 81 85 85 83 79 70 62 62 65 65 59 54 53 53 51 53 56 61 64 67 60 36 38 52 58 69 75
30 36 32 28 30 39 64 85 93 87 86 82 81 85 79 64 43 49 52 62 66 77 83 81 75 75 68 67 66 70 66 56 58 61 54 62 64 66 69 70 54 36 35 46 69 81 83
34 35 30 28 36 50 69 89 94 95 92 86 82 85 80 72 60 46 51 46 51 56 61 62 66 67 70 72 76 75 68 64 65 56 55 63 71 74 80 83 72 48 40 47 63 89 93
36 33 28 37 51 58 79 91 91 94 96 92 87 85 85 76 70 63 57 57 62 62 62 59 65 69 79 83 83 80 76 76 72 68 64 75 80 85 83 82 82 77 63 57 62 86 94

GFSGBSN_prec_cthk_093.txt.gz
RH
31 26 25 25 21 17 15 14 13 12 10 9 7 6 5 4 4 3 3 3 4 4 6 9 12 16 22 29 29 29 28 31 38 43 44 39 39 41 41 39 38 37 34 33 31 30 28
28 28 26 24 21 17 15 13 11 11 8 7 5 4 4 3 3 3 3 2 2 2 3 3 7 12 24 26 28 36 33 34 33 42 46 46 41 40 42 41 40 37 36 34 32 31 31
32 30 30 25 20 17 13 12 10 8 6 5 4 4 4 3 3 3 3 2 2 2 2 3 5 10 19 14 19 29 37 34 35 38 47 52 52 46 42 41 40 39 38 35 35 35 34
30 26 22 19 18 17 12 10 8 6 5 4 4 4 4 4 4 3 3 3 2 2 3 6 8 14 17 9 14 19 29 39 33 36 40 46 56 55 51 47 46 46 44 43 38 35 34
26 22 18 16 14 13 11 8 6 6 5 5 5 5 5 5 4 4 4 4 3 4 10 12 12 18 15 10 15 29 37 41 42 33 43 41 51 58 55 53 49 49 46 48 44 39 36
27 23 19 15 12 11 9 8 8 7 6 6 7 7 7 6 5 7 6 6 6 9 17 17 26 27 11 10 16 21 33 45 52 42 42 45 49 52 51 51 49 49 50 46 44 42 40
26 19 15 13 12 12 10 10 11 7 8 8 7 7 7 8 7 8 9 7 13 17 19 22 17 22 13 13 22 23 35 40 57 52 40 49 55 47 47 46 44 45 48 46 45 44 43
22 20 19 17 14 10 9 11 12 11 13 9 9 8 8 9 8 9 14 18 32 39 34 18 12 16 12 11 18 17 33 40 47 64 39 45 46 47 46 47 49 48 48 47 46 45 44
22 18 15 14 11 11 9 9 11 11 10 10 10 10 10 10 8 14 17 24 31 37 44 18 16 25 19 19 23 23 29 39 44 61 61 42 40 40 41 41 41 43 45 46 45 44 43
23 17 16 14 10 10 10 10 11 11 11 10 11 11 11 13 14 16 22 27 30 33 50 25 33 62 48 32 29 26 31 39 43 62 66 63 56 55 48 45 38 38 36 37 41 43 41
24 22 21 14 11 12 10 9 9 9 10 11 12 14 15 16 20 24 30 31 31 40 52 23 43 91 81 61 39 34 37 36 41 54 64 59 58 47 54 41 35 33 32 36 43 46 50
24 22 19 15 16 15 10 12 10 10 10 12 14 16 18 22 24 31 33 31 37 46 47 24 40 83 88 67 52 49 38 36 41 57 55 57 54 50 41 49 42 42 47 55 57 53 50
23 21 20 18 16 12 12 13 10 11 14 14 16 19 24 26 29 30 29 31 46 51 25 36 53 66 88 70 58 52 38 39 44 57 55 50 48 52 51 51 50 45 44 56 51 56 38
23 21 18 18 15 17 14 12 12 12 15 16 18 24 25 30 36 34 34 42 51 33 42 39 47 72 94 78 64 52 36 36 41 44 52 54 56 51 47 44 44 48 45 43 43 52 51
23 22 20 19 17 15 13 13 12 13 17 20 23 23 28 36 41 48 53 58 43 54 64 52 58 85 96 75 73 59 43 36 36 39 44 44 43 40 48 55 54 58 55 49 53 56 53
25 22 20 16 17 15 17 15 12 14 21 26 26 26 32 41 54 59 71 68 53 44 53 69 93 95 97 90 81 73 67 65 51 41 45 35 51 44 46 52 58 51 50 56 59 63 64
26 22 20 19 16 19 18 15 13 20 27 30 29 30 39 50 68 77 88 85 64 48 53 86 95 96 98 96 90 93 89 79 61 53 55 45 48 55 48 47 55 52 52 56 55 59 61
27 23 20 17 15 19 19 15 17 22 31 35 35 38 41 48 64 74 85 77 54 45 42 78 93 98 98 97 97 97 92 87 77 63 60 66 64 67 67 59 52 53 57 55 54 69 67
30 24 19 23 19 20 19 17 20 26 34 38 44 41 40 53 66 71 78 70 60 44 47 67 80 92 98 98 97 98 93 85 82 78 67 72 73 84 85 72 65 63 62 63 65 66 69
32 29 22 27 20 23 19 18 20 28 37 42 48 50 48 52 65 78 85 73 68 54 59 76 88 98 99 97 98 97 98 84 82 81 76 72 73 67 71 73 68 65 60 61 63 64 58
32 29 26 28 21 24 23 22 20 31 40 47 53 56 54 57 64 71 82 87 91 79 85 96 98 96 97 98 96 97 94 90 81 82 80 80 80 70 66 65 66 63 59 55 57 55 59
31 29 30 30 24 24 21 21 21 32 45 54 57 61 58 57 59 66 81 86 93 88 92 92 88 96 92 92 97 94 92 88 85 74 72 73 83 73 63 59 50 43 38 43 45 46 45
31 27 28 29 27 22 29 23 25 35 47 57 62 67 64 55 58 63 71 77 79 80 78 84 87 86 83 84 86 80 78 69 68 70 64 64 62 57 58 51 39 31 33 29 30 35 43
31 28 31 27 22 27 32 23 24 38 50 60 65 72 68 56 56 56 57 67 75 79 88 85 81 81 76 72 67 63 62 58 58 55 54 53 46 46 48 43 39 31 36 37 36 36 41
31 32 32 25 29 32 32 25 30 43 56 64 70 78 72 61 53 45 49 61 67 76 84 86 82 84 78 71 66 60 58 59 69 62 53 54 51 62 60 54 36 32 47 48 44 39 49
32 30 30 29 32 32 30 25 32 42 58 68 74 83 77 67 56 51 48 57 67 78 77 82 79 76 72 70 65 67 66 64 61 63 58 59 62 55 57 55 51 44 49 48 47 32 44
32 34 32 29 32 34 25 22 31 42 61 72 81 88 83 72 57 58 51 53 60 70 74 79 78 76 75 73 73 75 70 64 63 60 65 70 66 63 64 57 44 48 51 50 49 51 50
35 35 31 30 31 36 31 22 29 47 64 78 91 88 88 74 68 64 62 50 50 56 67 69 70 73 80 79 78 81 77 74 71 69 69 66 69 72 65 66 62 62 62 66 72 69 58
34 36 31 33 43 35 32 23 29 50 68 85 96 90 84 78 74 69 64 56 51 46 53 58 64 71 76 78 76 79 78 76 72 69 71 76 80 77 76 79 76 77 81 77 73 66 66

GFSGBSN_prec_cthk_096.txt.gz
RH
44 39 35 30 27 21 19 17 15 13 11 9 8 7 6 5 5 4 4 4 3 3 3 2 2 3 7 10 8 6 12 16 23 31 40 46 48 46 43 43 43 40 39 35 35 33 31
48 41 36 32 27 22 19 17 15 13 10 9 8 6 5 5 4 4 4 3 3 3 2 2 3 5 13 12 4 4 7 12 18 33 40 42 50 51 49 46 45 43 41 39 36 34 32
42 36 36 32 26 22 18 16 14 11 10 7 6 5 5 5 5 4 4 3 3 3 3 2 3 7 14 6 4 4 3 8 15 24 39 46 48 52 51 48 44 44 43 41 39 38 35
39 35 32 31 25 22 18 15 13 10 7 6 6 5 5 5 4 4 4 3 3 3 3 4 8 14 12 7 4 3 5 7 11 17 32 39 52 57 55 55 50 45 45 42 40 39 35
40 35 34 31 23 20 17 13 10 8 7 6 6 5 5 5 4 4 3 3 3 4 6 10 16 21 15 12 10 16 23 21 18 17 25 36 42 59 63 61 59 53 47 47 47 44 38
40 41 35 25 21 18 15 10 8 7 7 6 6 6 5 5 4 4 4 4 5 10 17 15 26 30 17 14 15 27 28 31 28 26 25 34 47 54 63 64 55 58 54 50 50 47 43
45 38 29 24 22 16 11 9 8 7 7 6 6 6 6 5 5 6 7 12 14 20 18 14 13 13 9 7 12 12 16 31 34 30 22 31 47 44 48 58 61 59 57 54 51 48 45
44 36 28 26 19 13 10 8 8 8 7 7 6 6 7 7 7 10 14 21 28 31 25 15 15 17 23 34 25 9 25 30 36 37 35 41 38 45 50 58 63 65 64 55 52 55 48
39 31 27 23 16 12 10 8 8 7 7 7 7 7 9 8 8 16 19 25 26 33 34 16 18 27 47 66 35 15 27 26 38 45 35 35 43 52 56 57 63 60 57 55 56 51 46
36 31 24 18 14 12 10 9 8 8 8 7 7 9 9 9 17 18 24 24 28 36 44 21 30 47 70 94 55 30 19 22 39 43 48 44 49 50 56 58 56 52 48 46 50 52 50
36 29 23 19 15 12 10 9 10 9 9 8 8 9 11 13 16 20 20 21 24 42 45 21 41 50 61 77 74 49 37 28 44 46 57 52 58 52 56 51 48 47 44 43 43 43 47
36 32 27 20 18 14 11 14 11 10 9 8 9 11 13 20 22 24 20 20 34 60 49 29 39 55 51 66 75 51 52 35 48 57 59 68 64 69 62 63 51 46 47 51 53 57 59
35 30 26 23 18 14 13 13 12 10 9 9 10 12 14 16 24 24 23 32 48 56 37 48 48 37 56 78 82 67 58 43 52 63 67 69 65 71 64 62 60 56 52 61 66 63 46
32 28 27 23 19 21 17 15 12 9 9 12 13 14 15 21 29 31 37 45 46 38 48 52 40 48 90 95 84 71 55 50 56 46 57 62 67 67 64 55 57 59 51 57 50 44 42
31 28 26 23 21 20 16 15 11 9 11 14 15 15 20 26 30 37 50 54 46 43 53 47 47 77 85 88 98 70 47 44 48 52 57 60 60 59 61 59 55 63 57 52 44 49 46
31 27 25 22 22 19 19 17 11 9 14 17 18 17 27 26 33 47 54 59 61 58 45 43 81 88 94 87 96 84 53 41 43 42 50 52 70 60 64 65 51 54 50 55 53 60 51
32 27 25 23 23 19 19 16 11 12 16 19 23 26 25 27 36 52 59 60 52 46 47 62 89 95 93 96 96 91 91 52 56 44 53 51 58 61 61 61 67 64 59 55 54 52 49
34 27 25 23 18 19 20 15 12 13 17 21 25 30 27 27 48 52 57 61 51 48 61 68 78 89 96 97 97 99 99 77 60 66 62 70 61 54 62 61 56 58 54 46 48 59 54
34 29 25 25 25 20 19 16 13 15 20 24 30 33 33 36 47 47 56 60 50 50 64 68 74 88 98 98 98 98 98 91 73 73 78 73 63 69 73 58 54 56 53 52 53 53 60
39 34 28 26 26 21 19 16 15 19 23 27 33 40 39 41 48 52 58 66 56 54 86 93 93 98 98 98 98 98 98 93 89 82 75 75 68 69 65 57 52 59 58 58 57 58 55
43 39 34 31 28 24 20 19 17 22 26 31 37 44 44 48 46 51 63 68 72 74 79 89 90 86 93 94 93 96 96 94 90 87 80 81 77 72 72 69 66 63 56 53 55 54 54
44 40 35 32 28 23 21 19 17 25 28 33 43 46 46 48 46 49 58 73 71 71 80 79 82 83 81 90 92 96 94 95 91 85 90 87 77 68 64 58 55 54 48 48 47 49 50
42 40 36 32 26 22 25 27 22 26 30 38 44 47 50 49 42 44 49 56 66 67 69 74 78 77 77 78 78 76 83 85 77 82 79 71 65 62 64 51 41 41 43 38 38 40 40
41 38 32 27 25 25 29 28 21 25 35 43 48 51 56 55 46 38 46 49 55 63 73 73 75 75 70 66 65 65 64 61 65 64 60 54 48 43 50 44 42 47 40 40 40 43 41
34 32 29 31 26 26 31 34 20 28 40 43 56 57 61 61 53 37 38 45 52 61 68 73 71 71 66 66 62 60 61 62 56 57 56 55 49 49 49 42 45 52 50 47 47 48 49
37 33 30 32 27 33 34 32 23 36 41 46 56 61 66 70 60 46 43 42 46 54 63 69 73 69 66 65 63 68 69 63 60 57 54 50 48 52 52 46 56 71 59 54 46 46 51
43 36 31 28 30 34 33 29 25 32 38 49 64 67 74 78 65 54 54 48 44 48 58 67 69 70 71 70 71 68 68 63 67 62 62 60 62 64 58 53 54 64 56 53 54 72 60
39 35 31 31 31 34 36 31 20 30 36 54 66 75 79 82 74 61 58 55 50 51 55 67 71 71 79 76 70 72 75 70 69 69 70 67 66 64 63 63 63 73 63 64 72 73 70
49 39 33 32 30 32 36 34 25 27 35 60 70 82 88 86 73 63 60 56 56 54 52 57 65 68 72 77 74 76 79 74 70 80 66 76 74 76 72 75 77 79 79 78 76 69 69

GFSGBSN_prec_cthk_102.txt.gz
RH
75 70 66 62 56 48 43 41 41 46 43 37 33 28 25 20 15 11 9 8 7 6 5 5 4 3 3 9 8 6 6 6 4 4 5 5 9 15 18 17 26 35 32 43 42 42 39
80 74 67 61 56 48 43 39 34 32 27 27 25 21 17 14 12 10 9 8 7 6 5 5 4 4 9 12 4 7 7 7 7 6 7 7 6 11 15 22 24 24 33 42 45 43 41
85 76 70 61 54 47 45 38 33 29 26 24 24 20 16 14 12 10 9 8 6 6 5 5 5 4 10 7 6 7 8 9 9 9 8 7 9 13 12 14 15 25 34 36 47 41 43
86 77 70 61 53 46 42 37 31 28 25 24 22 18 15 14 11 10 8 7 6 6 6 6 7 8 14 9 12 11 11 12 12 11 10 8 9 14 22 17 19 27 33 38 31 42 48
87 79 73 60 51 46 40 34 32 30 26 24 20 18 15 13 10 9 8 7 8 8 9 11 13 24 21 17 17 16 21 27 26 22 21 16 15 14 17 27 26 27 33 34 30 48 55
90 81 75 61 51 43 38 34 32 32 27 23 19 17 14 11 10 9 8 8 9 10 15 17 25 29 22 23 21 19 20 22 38 37 35 41 36 22 18 32 40 29 33 32 36 47 55
91 86 76 62 47 42 40 38 37 28 25 21 18 16 13 10 9 9 10 12 12 14 16 13 11 15 14 15 17 20 22 24 22 21 27 41 62 42 17 18 24 29 32 39 42 51 60
94 86 76 64 55 44 39 42 33 26 24 20 18 14 11 9 9 11 16 16 17 19 17 11 18 24 30 31 32 43 51 59 54 34 21 30 50 63 29 19 18 26 44 54 65 60 67
93 86 76 66 50 40 47 36 28 26 24 22 16 11 10 9 10 14 22 18 19 22 25 21 28 35 52 73 83 57 56 61 69 71 50 26 40 69 42 24 23 30 43 55 65 71 87
93 81 78 62 43 52 41 34 30 27 25 17 12 10 9 10 14 19 19 19 21 31 39 32 54 53 56 60 52 55 68 62 72 72 52 31 29 65 56 22 28 44 48 64 72 87 92
83 79 68 52 53 46 40 30 30 26 18 13 11 10 10 11 16 21 17 18 31 44 46 27 28 37 35 46 43 33 49 79 73 58 37 25 37 51 59 26 33 46 50 68 60 70 82
81 71 56 60 57 41 36 31 27 20 15 13 11 10 10 17 24 21 15 29 45 62 44 22 24 28 40 52 56 62 63 68 79 50 32 31 56 78 62 49 38 47 64 70 72 70 92
69 57 74 64 44 39 35 28 24 17 14 12 11 10 10 16 16 13 22 38 53 38 27 28 38 57 60 64 76 72 81 89 91 44 39 60 58 59 51 56 58 59 72 75 83 92 63
75 84 65 53 48 40 32 26 20 15 13 13 11 11 17 18 10 16 31 47 31 29 46 49 54 61 70 79 74 85 81 76 41 30 51 56 96 68 49 50 51 55 62 71 61 58 49
80 65 58 53 44 39 31 22 19 14 13 14 16 18 25 16 10 23 39 34 35 39 45 51 53 59 72 75 87 83 79 68 25 32 53 94 94 68 61 51 52 57 64 63 94 84 92
61 57 55 52 39 37 29 24 19 14 14 14 19 24 25 13 13 31 41 37 37 46 43 52 62 64 81 86 91 80 89 51 40 53 67 85 95 67 63 65 66 67 67 85 95 97 96
67 58 52 42 38 38 29 25 18 15 15 15 22 30 30 15 26 37 44 37 39 47 53 56 62 74 86 94 92 94 90 84 72 74 76 82 83 67 72 90 73 70 86 87 87 78 87
66 64 50 42 39 34 30 24 18 16 15 17 26 38 27 18 40 37 40 38 41 48 57 61 65 71 86 93 90 96 94 98 80 84 83 65 73 68 67 77 75 73 75 75 90 63 80
68 64 53 44 39 31 30 25 18 16 18 25 35 33 28 26 37 35 36 44 44 44 55 61 67 72 82 93 92 94 89 88 80 70 79 68 67 93 76 71 75 78 78 72 70 80 69
68 57 51 44 36 31 29 25 18 16 16 23 33 36 38 36 37 34 37 43 44 42 52 60 63 65 70 88 77 90 92 88 85 72 69 72 69 88 79 70 84 84 85 73 76 86 76
54 53 51 46 46 38 31 26 19 17 18 28 35 33 33 42 40 34 38 42 46 43 47 56 57 59 65 84 76 80 83 90 76 69 79 81 98 90 79 74 72 89 91 87 70 64 93
66 60 55 47 49 40 34 28 20 20 21 31 21 39 36 29 36 36 38 43 40 39 44 52 55 58 62 66 76 82 85 87 85 80 90 90 98 90 95 77 83 67 65 61 64 68 68
69 59 57 50 50 44 36 26 20 22 26 32 29 33 34 38 38 38 43 38 35 35 40 49 53 57 56 55 64 75 81 88 90 91 90 90 83 87 71 64 63 66 64 72 71 65 70
59 60 58 54 50 44 33 27 22 26 32 32 35 33 36 42 38 39 36 32 34 37 36 40 51 53 48 51 60 74 72 83 70 73 79 86 78 71 65 62 88 79 77 86 76 74 67
71 73 60 52 47 41 33 30 26 25 29 34 39 40 42 41 43 44 43 41 35 41 42 41 50 48 48 52 60 80 75 86 72 67 65 70 77 68 74 73 79 76 76 79 84 85 71
67 64 55 49 43 41 35 33 28 18 25 34 42 41 42 45 55 49 39 55 58 47 38 42 46 47 54 56 67 81 72 70 71 69 64 60 69 72 68 68 90 92 66 60 64 76 72
64 54 52 47 43 41 34 33 30 21 26 36 44 37 44 48 54 53 55 55 55 55 46 48 50 55 55 64 78 79 94 64 82 73 63 65 63 70 66 70 83 77 64 55 64 89 84
62 58 50 47 44 39 35 34 30 26 28 39 49 41 47 51 51 57 57 63 60 51 55 49 54 74 64 73 72 71 67 64 77 72 63 69 81 72 71 74 85 68 58 60 81 86 83
66 58 58 48 41 35 34 34 32 25 26 36 45 45 49 53 55 55 56 56 48 48 50 48 60 72 72 69 74 66 66 69 65 95 72 76 67 76 69 81 77 73 79 79 78 77 80

GFSGBSN_prec_cthk_108.txt.gz
RH
72 76 72 74 82 80 74 75 70 63 55 48 42 39 37 39 34 29 28 26 25 20 18 17 16 15 15 13 10 10 10 10 10 10 9 9 9 7 10 15 15 11 7 6 7 10 12
71 73 78 76 78 73 77 71 66 64 57 51 45 41 35 33 31 28 26 24 22 21 19 17 17 15 15 15 11 10 11 12 13 13 13 14 12 10 10 9 9 13 15 13 12 10 10
74 75 86 83 75 76 71 64 66 68 60 52 44 40 37 33 30 27 25 24 22 21 19 18 17 17 19 14 16 17 17 13 13 14 15 15 16 15 14 14 12 12 12 11 10 11 15
64 70 76 72 78 77 71 62 69 73 67 52 48 42 37 32 28 26 26 25 23 21 18 18 18 20 17 19 18 15 16 16 16 17 17 19 20 21 20 20 18 20 20 17 9 13 14
66 67 75 89 76 77 69 63 63 72 67 55 50 40 37 31 27 27 27 25 22 19 18 18 19 20 18 13 17 15 13 14 17 20 21 23 29 32 28 26 27 23 28 23 15 14 17
68 65 75 80 77 69 68 63 68 68 62 55 48 40 37 29 26 29 28 25 22 20 20 16 20 21 14 13 13 10 16 16 19 24 27 33 40 43 47 54 58 36 29 22 22 12 19
69 74 72 79 87 81 69 69 70 59 54 54 44 40 34 30 35 34 29 26 21 19 16 15 15 14 11 16 16 14 14 16 19 27 34 39 52 50 46 52 68 79 59 42 21 14 24
65 75 81 93 88 81 75 69 69 56 53 48 42 40 41 43 38 41 37 26 25 21 19 15 14 13 15 18 19 20 21 23 27 34 40 44 51 61 72 70 56 42 68 76 39 19 33
57 71 85 91 94 84 82 77 70 65 53 44 42 48 41 35 47 36 31 27 23 24 24 17 15 15 19 24 23 22 25 31 36 38 41 42 35 53 58 65 81 36 48 72 65 34 43
63 88 75 89 94 93 92 79 62 55 46 49 51 40 40 45 34 29 25 26 22 26 31 17 15 20 25 27 27 33 43 44 46 48 56 45 39 53 73 76 80 46 42 67 79 54 50
51 75 79 85 94 96 92 82 59 47 47 56 40 43 45 35 31 27 23 21 28 30 25 17 17 21 29 35 36 42 52 51 61 60 67 58 55 64 68 65 59 58 64 76 63 42 57
48 64 64 97 98 96 94 70 57 55 53 45 45 44 34 31 31 24 18 25 32 28 25 20 18 23 26 36 44 47 58 69 62 55 55 57 50 55 48 48 56 58 60 71 67 43 58
63 71 75 93 92 98 85 75 63 51 52 48 46 35 31 30 21 18 24 30 31 27 21 23 23 24 32 38 46 52 63 79 67 70 54 47 43 37 45 58 49 57 73 90 85 85 69
74 68 76 89 97 93 86 66 53 60 49 47 37 31 30 21 20 20 31 33 25 25 23 23 29 32 41 44 49 58 64 64 60 68 73 59 63 59 71 74 58 72 71 75 95 93 80
73 87 78 94 98 95 76 60 67 48 45 40 33 33 28 22 18 24 33 35 29 24 26 30 31 39 46 50 63 65 65 69 75 83 92 93 76 63 61 49 66 64 70 66 78 88 83
83 89 83 93 97 88 59 68 52 52 44 37 37 36 28 21 22 31 37 31 29 27 28 33 46 44 57 59 65 67 65 65 69 76 86 97 90 64 72 71 74 72 74 76 90 83 88
96 98 99 93 88 69 75 62 56 46 38 35 40 35 32 23 27 34 39 30 30 28 28 34 46 54 60 65 65 66 68 64 66 73 81 94 99 75 70 77 80 74 78 75 70 78 90
95 98 98 87 71 83 77 55 49 43 35 33 40 40 35 21 33 39 38 32 29 29 31 33 41 54 61 66 68 68 71 72 72 74 74 82 98 94 86 78 80 82 77 71 82 85 94
97 96 87 84 88 83 61 62 48 36 36 40 40 41 35 30 38 38 35 37 31 31 31 35 42 49 53 65 70 66 69 66 75 79 79 76 84 88 80 89 93 91 80 79 87 95 98
97 96 97 91 81 68 69 54 39 38 36 42 42 45 37 37 30 32 32 37 33 29 32 35 37 40 49 57 66 66 66 63 69 78 78 75 81 85 88 84 91 99 94 94 93 98 96
97 97 94 83 73 73 65 46 41 36 38 40 37 40 38 44 40 34 29 33 34 33 29 33 36 38 46 57 58 64 62 67 67 72 79 83 91 95 99 94 98 98 98 98 99 99 94
96 87 78 78 75 70 56 47 39 35 38 36 30 39 35 35 36 32 36 38 41 32 27 29 31 34 39 45 54 59 65 76 78 78 81 88 97 99 97 97 93 97 98 96 98 98 98
94 87 88 86 74 59 51 44 36 34 35 33 32 33 33 37 36 38 40 35 31 28 27 31 34 34 35 36 43 50 67 71 80 90 87 82 94 97 96 95 94 90 97 97 97 96 95
89 86 80 79 72 58 50 42 35 36 35 29 29 31 34 44 40 38 33 31 31 33 34 37 35 34 29 29 35 54 69 73 79 87 90 85 82 91 92 91 89 98 98 95 91 91 85
92 84 79 74 69 63 50 36 34 38 33 29 27 30 33 45 41 38 37 36 34 33 35 36 35 35 28 25 50 70 75 75 83 78 85 82 85 96 97 94 97 90 93 96 93 92 89
95 87 79 72 64 56 47 33 35 34 30 27 27 30 35 40 44 41 39 38 36 35 33 30 30 31 31 40 58 85 88 82 90 81 76 84 88 98 97 94 96 92 86 88 85 85 88
80 75 65 58 59 58 48 39 41 33 34 32 32 32 33 37 39 41 40 40 36 35 36 36 33 38 37 48 62 79 87 83 97 89 80 87 90 92 95 92 88 88 85 80 76 82 82
88 89 87 73 60 50 49 50 33 35 35 35 34 32 30 31 38 39 40 38 40 36 40 36 39 44 44 51 59 80 88 89 96 89 85 84 91 86 88 86 85 81 68 70 77 83 84
85 78 70 63 66 66 57 41 28 31 36 38 35 31 28 31 35 37 36 35 35 37 40 39 50 52 54 54 57 75 86 92 95 97 86 86 78 85 79 84 84 77 72 73 75 75 78

GFSGBSN_prec_cthk_111.txt.gz
RH
65 67 75 78 64 63 64 67 68 63 58 57 54 53 51 48 42 39 35 31 29 26 24 23 24 23 22 21 18 16 16 16 16 15 16 15 15 12 13 15 14 15 13 10 10 10 10
63 63 67 66 68 72 70 67 62 60 54 52 55 53 48 47 40 35 33 32 30 26 25 25 24 22 23 22 19 20 19 18 16 16 16 15 16 15 16 13 13 12 10 10 10 10 12
56 64 61 70 69 71 77 67 56 61 59 48 57 58 54 46 37 35 34 32 30 27 26 26 25 25 23 20 21 20 18 18 19 19 18 17 16 16 17 18 17 14 16 13 10 11 12
55 62 61 61 64 69 71 65 66 63 61 51 55 61 52 48 44 37 32 30 29 28 28 26 25 25 21 21 19 17 15 14 12 12 15 18 18 19 19 21 23 23 23 21 12 14 13
59 57 67 63 60 66 65 67 71 68 59 53 54 57 50 46 45 37 34 33 30 29 30 28 25 25 22 19 15 12 13 13 12 12 15 16 17 20 24 27 32 29 32 29 19 15 17
46 52 67 67 65 68 68 72 66 69 61 62 56 50 42 44 39 35 36 33 31 34 32 30 29 27 19 14 14 14 16 16 14 14 16 21 22 25 24 33 44 50 60 63 59 32 30
50 47 51 70 62 68 69 65 70 66 75 65 49 43 39 31 29 35 33 33 39 41 37 30 25 19 14 14 14 16 16 16 17 18 23 24 32 37 33 38 45 56 62 52 43 49 52
48 46 47 53 83 61 70 78 74 76 83 71 45 41 37 32 30 36 43 44 52 38 36 27 23 17 15 16 17 17 19 22 20 24 28 35 36 34 37 44 55 52 54 52 49 46 64
50 45 54 51 54 72 81 75 83 84 91 62 55 47 48 30 35 41 48 49 38 38 34 24 18 15 16 19 20 22 27 29 31 34 42 45 38 44 52 42 44 48 77 74 77 47 54
48 51 54 52 50 64 85 70 83 96 87 70 60 45 34 32 40 44 43 35 36 36 36 21 16 18 20 20 24 27 33 36 39 43 47 41 40 46 56 50 58 64 66 77 56 55 64
47 55 54 55 50 61 59 77 83 87 85 77 57 37 42 35 40 42 37 35 43 35 26 20 17 17 21 25 28 30 37 40 46 46 51 47 44 46 49 45 54 56 61 69 72 73 92
44 48 59 53 69 55 68 75 88 87 91 69 52 47 46 42 44 37 32 36 38 29 22 21 18 21 23 25 30 33 42 46 48 45 55 54 50 50 44 44 53 58 60 63 71 77 89
45 53 53 58 72 60 58 84 96 85 84 60 54 51 40 48 36 33 35 37 32 24 20 22 20 23 28 30 32 39 48 55 66 67 65 68 63 62 64 69 55 55 69 83 96 90 65
41 54 57 58 67 64 56 80 79 90 74 63 55 44 47 41 32 34 40 39 25 24 21 21 24 26 31 36 37 47 53 61 67 74 79 82 66 62 63 63 64 66 72 87 95 95 78
39 56 61 63 64 67 80 71 84 79 77 61 49 55 44 36 31 35 41 36 24 24 23 26 29 31 32 36 44 46 54 63 71 75 85 87 83 66 70 64 59 68 80 74 93 88 98
52 60 66 70 77 81 96 85 77 85 65 56 57 47 39 37 36 42 39 27 25 24 26 28 35 36 43 42 47 49 56 57 70 70 77 86 85 70 72 72 74 74 81 91 96 97 89
56 61 71 77 85 89 82 94 86 71 65 60 52 41 45 41 43 42 38 28 26 26 27 30 38 41 43 49 54 59 63 60 69 66 72 78 82 70 68 81 88 79 77 84 87 86 96
65 71 90 83 99 95 95 95 71 73 62 56 50 53 50 41 45 45 34 29 27 28 29 31 35 38 41 45 51 61 68 64 60 66 73 77 78 82 73 76 84 90 81 79 82 86 93
86 92 94 98 91 88 92 74 75 67 55 54 53 52 51 41 48 42 32 30 29 28 30 32 35 38 37 44 53 59 67 57 59 69 79 80 75 78 68 74 83 91 87 81 91 94 94
98 99 98 98 98 95 82 77 71 57 58 54 49 60 54 51 40 33 32 32 32 30 31 29 31 30 33 40 49 59 62 56 62 71 78 80 84 91 92 91 94 95 91 88 97 98 96
98 98 98 97 91 81 84 76 61 61 54 51 54 55 47 49 39 33 31 33 33 32 28 29 30 30 33 38 45 59 56 63 68 75 80 87 97 95 92 97 93 96 95 98 96 96 93
97 97 96 94 90 97 83 63 58 53 55 56 52 52 46 38 32 31 30 31 33 30 25 25 27 29 28 33 39 48 52 65 77 83 88 95 98 99 98 96 93 96 96 96 98 97 97
97 97 96 97 97 83 60 69 58 47 55 56 47 42 35 39 37 34 33 35 36 29 26 28 29 29 28 27 29 34 46 59 73 88 94 98 98 98 97 92 91 86 97 97 95 96 96
97 97 97 88 77 68 74 61 42 53 54 50 42 35 33 39 36 35 34 32 33 32 27 33 31 29 27 23 20 35 59 72 75 79 91 95 96 98 96 97 92 97 97 96 89 88 89
96 93 88 84 83 77 64 49 53 54 56 43 33 31 30 39 39 36 34 35 35 32 34 35 30 28 27 23 36 52 68 70 81 75 80 90 94 98 97 93 97 96 96 95 95 94 91
94 92 90 85 81 72 54 56 58 56 45 33 29 30 28 36 42 38 36 35 37 37 34 30 26 30 28 38 48 64 78 81 88 80 70 89 92 97 97 93 96 96 94 93 88 92 88
92 92 87 78 68 64 60 56 58 50 42 28 25 25 29 36 41 37 35 36 36 33 32 33 32 35 32 43 52 61 71 79 97 90 82 86 89 96 97 93 94 94 98 90 85 89 87
94 90 87 74 65 55 56 58 48 45 33 28 26 25 30 36 39 38 35 35 36 32 33 32 38 40 39 46 47 56 72 89 98 94 91 87 92 91 92 87 90 86 82 77 82 84 83
93 87 82 78 67 58 52 55 46 45 35 29 25 26 28 32 34 35 36 38 34 34 33 37 44 44 46 49 50 59 71 92 94 98 92 88 85 90 89 89 87 82 74 74 76 77 78

GFSGBSN_prec_cthk_114.txt.gz
RH
81 72 67 64 61 65 70 67 60 58 58 54 49 41 46 47 41 40 42 39 35 32 33 32 29 26 25 24 23 22 22 21 21 19 18 17 17 16 17 17 15 14 14 12 13 12 12
73 69 62 63 66 60 62 63 63 60 61 50 50 44 39 46 44 44 41 39 34 32 32 30 29 28 28 25 25 26 25 24 23 21 20 18 18 17 18 18 17 14 13 13 13 14 14
68 63 60 60 59 58 59 67 67 63 60 52 49 45 43 42 44 45 39 33 32 33 31 30 31 30 30 29 29 30 25 21 19 16 15 16 17 18 17 17 15 15 16 15 13 14 13
73 86 68 65 65 59 63 60 66 64 63 56 52 52 42 43 44 39 35 35 34 32 30 29 31 31 30 31 29 24 20 18 16 16 14 13 17 18 19 19 17 20 22 23 14 17 15
74 82 75 75 72 68 65 64 67 66 61 62 55 52 52 49 48 38 32 31 28 25 30 30 30 34 33 31 27 24 23 20 17 16 13 14 19 21 19 22 25 28 30 30 21 18 20
59 60 64 74 63 68 60 68 70 67 71 60 56 52 50 51 47 35 32 28 24 26 30 35 41 44 34 28 24 23 22 18 18 16 15 18 20 21 24 31 33 30 37 34 34 19 26
33 35 33 39 56 47 50 79 73 67 77 65 53 56 59 59 39 34 30 24 24 27 31 38 43 37 29 26 24 22 19 20 19 20 23 23 29 32 31 34 34 33 39 43 33 31 40
35 38 49 55 49 42 48 53 85 76 78 65 81 61 63 65 45 38 28 26 27 33 40 41 39 31 26 26 20 20 21 23 22 26 29 33 35 29 30 34 42 50 52 47 42 36 57
34 37 43 47 51 45 51 55 57 73 81 82 69 71 72 57 47 41 36 33 34 38 38 31 31 27 26 23 21 22 22 24 28 30 31 34 28 30 32 35 42 41 52 46 50 52 56
26 35 39 44 48 61 60 56 58 63 84 67 73 82 81 62 55 46 36 35 40 34 34 29 29 29 25 23 23 25 28 31 35 36 35 36 37 40 42 40 44 53 41 49 60 73 82
15 20 32 42 52 53 69 57 68 63 68 68 83 82 85 65 53 46 40 42 40 32 28 30 27 22 23 24 23 25 29 33 36 40 43 46 46 48 52 49 48 51 50 59 59 65 76
11 14 21 32 49 58 58 57 82 56 69 74 84 73 75 62 54 48 45 49 37 35 35 29 25 22 21 22 26 26 33 38 42 45 46 50 49 54 49 53 56 54 54 53 63 80 85
11 16 20 23 36 55 60 62 76 56 66 74 68 80 65 57 53 49 49 44 38 37 30 30 26 24 23 25 27 30 37 43 55 57 52 51 53 54 53 60 52 64 69 76 76 92 89
12 13 15 25 31 44 60 64 68 62 60 80 94 67 62 60 54 55 51 42 40 35 31 26 24 24 28 28 29 33 38 46 57 64 63 68 59 54 59 67 58 63 69 89 95 96 93
9 10 14 21 35 41 57 63 65 81 81 81 87 75 64 62 55 53 47 50 36 34 29 25 26 28 30 31 35 36 38 47 54 62 74 71 65 53 65 69 73 70 78 84 96 89 96
8 9 13 20 35 37 50 61 74 94 91 81 89 70 65 56 52 54 51 43 39 34 28 25 29 30 37 33 39 41 41 45 55 60 65 76 73 54 58 71 72 77 78 92 94 96 93
7 8 15 19 35 38 49 68 76 79 84 86 72 67 52 62 58 58 54 44 40 31 24 27 32 35 34 37 42 44 46 49 52 55 64 71 79 59 60 65 71 85 89 91 90 93 97
11 15 23 29 40 42 56 74 73 98 86 77 69 62 56 71 64 57 50 44 36 32 27 28 31 31 35 37 41 46 51 48 47 56 69 74 80 74 62 56 68 79 86 89 91 92 97
28 27 31 36 44 54 68 74 85 86 87 82 75 74 81 65 66 59 50 42 35 30 28 31 32 33 31 36 37 45 49 43 48 61 78 82 83 79 65 73 80 86 87 87 89 98 96
44 41 44 55 63 66 71 82 98 98 85 78 74 86 82 70 61 51 47 40 36 29 29 27 29 34 33 34 38 40 45 43 55 61 75 88 90 89 93 92 90 91 97 95 97 98 97
79 71 73 73 72 77 81 96 98 78 69 74 73 73 64 70 66 53 43 39 33 31 29 27 31 29 30 35 34 43 42 44 54 71 79 92 93 98 95 92 90 95 98 96 90 93 91
89 81 78 79 82 92 99 98 75 71 78 76 72 68 64 57 51 53 46 40 32 29 26 26 28 29 28 30 29 32 35 40 53 70 82 93 97 98 96 94 94 97 97 94 95 97 96
95 96 93 97 98 98 94 78 77 84 77 75 67 60 55 54 57 49 43 34 32 27 28 26 28 29 28 26 25 23 26 33 52 69 91 98 98 98 97 90 86 87 97 97 96 95 96
96 97 97 97 97 89 85 88 77 75 79 67 58 49 54 57 52 40 34 29 32 29 28 30 29 30 27 25 19 19 34 49 61 72 91 95 98 98 97 94 92 95 94 93 91 93 93
98 98 97 97 97 97 81 66 76 81 68 51 56 55 50 58 41 36 34 34 33 30 31 31 31 29 27 24 31 41 46 50 65 74 86 87 98 98 98 96 96 91 92 95 93 92 91
97 97 97 97 87 74 73 73 71 69 55 60 59 46 41 42 44 37 34 34 34 34 34 34 29 28 28 35 44 52 61 60 67 74 79 81 93 99 97 92 96 94 94 90 88 90 87
97 96 97 84 72 72 75 69 58 53 63 56 53 44 40 41 42 35 34 35 33 33 31 31 32 35 30 40 48 52 59 58 78 80 86 81 93 97 97 93 92 94 94 92 87 88 85
97 93 86 79 74 81 68 55 62 60 59 50 37 38 39 39 40 36 35 34 32 28 30 32 35 37 37 42 44 50 61 67 81 85 87 85 96 96 97 95 93 94 91 81 84 85 81
98 96 90 87 73 61 58 68 62 60 44 35 33 37 34 30 37 39 37 31 29 29 31 38 39 39 41 44 47 53 63 70 87 98 91 92 93 96 97 96 94 91 84 82 83 83 80